Погода в Лосево

Россия / Псковская область     56°34′33″N   30°47′28″E
темп.,
°C
ветер,
м/с
пор.,
м/с
влажн.,
%
обл.,
%
осадки,
мм/ч
давл.,
гПа
погр.,
м
8 августа, пн
пн800:00+12в11795 0.0 102310
03:00+11юв118343 0.0 102310
06:00+11ююв0083100 0.0 102410
09:00+17ю0163100 0.0 1024302
12:00+22з004561 0.0 10231517
15:00+23з113879 0.0 10222058
18:00+22сз014477 0.0 10221589
21:00+16сз226670 0.0 102343
9 августа, вт
вт900:00+16с1168100 0.0 102332
03:00+15ссз2273100 0.0 102352
06:00+14ссз2379100 0.0 102494
09:00+15ссв268199 0.0 1024223
12:00+19ссв246129 0.0 1024579
15:00+22ссв224664 0.0 10241893
18:00+21ссз235618 0.2 10241243
21:00+15с24855 0.3 102466
10 августа, ср
ср1000:00+12ссв22935 0.0 102541
03:00+11ссв22975 0.0 102544
06:00+11с24976 0.0 102689
09:00+17ссв35704 0.0 1026460
12:00+21ссв34480 0.0 10261437
15:00+22с33400 0.0 10251969
18:00+22с23487 0.0 10251845
21:00+15с22735 0.0 102636
11 августа, чт
чт1100:00+13ссв22835 0.0 102615
03:00+11всв118069 0.0 102710
06:00+11св11825 0.0 102710
09:00+18ссз006014 0.0 1027300
12:00+23ююз12445 0.0 10271267
15:00+24зюз22390 0.0 10251827
18:00+23зсз1251100 0.0 1025711
21:00+17ссв006748 0.0 102511
12 августа, пт
пт1200:00+15ююз117567 0.0 102611
03:00+14юз2279100 0.0 102613
06:00+13зюз11775 0.0 102713
09:00+19з12584 0.0 1027264
12:00+25з12435 0.0 10261065
15:00+26зюз22395 0.0 10251582
18:00+25юз12486 0.0 10241236
21:00+18ю116774 0.0 102411